{"data":{"norad_id":66289,"intl_designator":"2025-247AA","name":"STARLINK-35802","alt_names":[],"object_type":"PAYLOAD","status":"ACTIVE","operator":null,"country":"US","launch_date":"2025-10-31","launch_site_code":"AFWTR","launch_vehicle":null,"mission":null,"orbit_class":"UNKNOWN","rcs_meters":null,"size_class":null,"mass_kg":null,"dimensions":null,"purposes":["comms"],"wikipedia_slug":null,"has_3d_model":false,"image_url":null,"decayed_at":null,"tle_current":{"epoch":"2026-09-20T13:21:30.833568Z","epoch_age_seconds":91823,"freshness":"FRESH","line1":"1 66289U 25247AA  26263.55660687  .00019495  00000+0  58660-3 0  9998","line2":"2 66289  53.1670   1.6994 0000914  76.2011 283.9094 15.34400414 50933","mean_motion":15.34400414,"eccentricity":9.14e-5,"inclination_deg":53.167,"raan_deg":1.6994,"arg_perigee_deg":76.2011,"mean_anomaly_deg":283.9094,"bstar":0.0005866,"rev_number":5093,"period_min":93.847732760062,"perigee_km":462.07675702665,"apogee_km":463.32726239762,"semimajor_km":6840.8390097121,"source":"CELESTRAK","updated_at":"2026-09-21T09:00:35.871793Z"}}}